{"data":{"norad_id":62616,"epoch":"2026-09-22T17:16:04.355904Z","epoch_age_seconds":125823,"freshness":"FRESH","line1":"1 62616U 25009H   26265.71949486  .00005010  00000+0  18790-3 0  9999","line2":"2 62616  97.3845 344.7345 0005441   4.0953 356.0330 15.27676690 93702","mean_motion":15.2767669,"eccentricity":0.0005441,"inclination_deg":97.3845,"raan_deg":344.7345,"arg_perigee_deg":4.0953,"mean_anomaly_deg":356.033,"bstar":0.0001879,"rev_number":9370,"period_min":94.260782364886,"perigee_km":479.02657283345,"apogee_km":486.49260049906,"semimajor_km":6860.8965866663,"source":"CELESTRAK","updated_at":"2026-09-23T09:00:21.500448Z"}}